User: anonymous   Login
Location: Vale
(35.4830°N, 81.3830°W)
Time: 08:27:30
(UTC-04:00)
Language:

Oscar 11 - Orbit

View from above orbital plane
View from above orbital plane
View from above satellite
View from above satellite

Ground track
Ground track

The orbit data is extracted from the following two-line orbital elements,

1 14781U 84021B   15150.14646870  .00000423  00000-0  59306-4 0  9990
2 14781 097.8031 207.6716 0009852 125.1305 235.0833 14.82388466679355
Epoch (UTC): 30 May 2015 03:30:54
Eccentricity: 0.0009852
inclination: 97.8031°
perigee height: 615 km
apogee height: 628 km
right ascension of ascending node: 207.6716°
argument of perigee: 125.1305°
revolutions per day: 14.82388466
mean anomaly at epoch: 235.0833°
orbit number at epoch: 67935

The dashed part of the orbit path shows where the satellite is in the earth's shadow,  

DLR